Voltar ao catálogo

STARLINK-30448

AtivoComunicaçõesVLEO
NORAD 57928·PAYLOAD·🇺🇸 United States

Lançado Sep 24, 2023 de Cape Canaveral Space Force Station

Loading…

Próximas Passagens (próximas 24 horas)

TLE

AtualizadoSource: CelesTrak SupGP

Época: Sep 14, 2026, 22:28 UTC

1 57928C 23147R   26257.93659722 -.00024915  00000+0 -90222-3 0  2570
2 57928  43.0038 339.8929 0001827 273.2256 326.4775 15.27597363    12

Acompanhe STARLINK-30448 em tempo real com AllMySat

Download on the App Store